Location: Calvatone
(45.1167°N, 10.4333°E)
Time: 06:33:01
(UTC+00:00)

IRIDIUM 171 - Visible Passes

Search period start: 21 May 2024 00:00
Search period end: 31 May 2024 00:00
Orbit: 776 x 779 km, 86.4° (Epoch: 20 May)

Date Brightness Start Highest point End Pass type
(mag) Time Alt. Az. Time Alt. Az. Time Alt. Az.
21 May ? 02:39:13 10° ESE 02:41:35 13° ENE 02:43:56 10° NE visible
24 May ? 02:37:54 10° ESE 02:41:25 19° ENE 02:44:58 10° NE visible
25 May ? 02:07:41 10° E 02:08:18 10° ENE 02:08:55 10° ENE visible
27 May ? 02:37:04 10° SE 02:41:19 26° E 02:45:34 10° NNE visible
28 May ? 02:05:16 10° ESE 02:08:06 15° ENE 02:10:57 10° NE visible
30 May ? 02:36:31 10° SSE 02:41:13 36° E 02:45:58 10° NNE visible
